Tracking 31027 objects as of 19-Jul-2025
HD Live streaming from Space Station
objects crossing your sky now

STARLINK-2338

Track STARLINK-2338 now!
10-day predictions
STARLINK-2338 is classified as:


NORAD ID: 47793
Int'l Code: 2021-018G
Perigee: 553.6 km
Apogee: 555.2 km
Inclination: 53.1 °
Period: 95.6 minutes
Semi major axis: 6925 km
RCS: Unknown
Launch date: March 11, 2021
Source: United States (US)
Launch site: AIR FORCE EASTERN TEST RANGE (AFETR)
Your satellite tracking list
No more satellites can be added for tracking (max 5)
SPACE STATION
EYESAT-1
SAUDISAT 1C
FOX-1B (RADFXSAT AO-91)
DOSAAF-85 (RS-44)
Track 5 satellite(s)




NASA's NSSDC Master Catalog

Two Line Element Set (TLE):
1 47793U 21018G   25199.71184679 -.00001359  00000-0 -72402-4 0  9990
2 47793  53.0542 201.9861 0001202  85.5835 274.5291 15.06385597241609
Source of the keplerian elements: AFSPC